Regional Weather Roundup
Issued by NWS Bismarck, ND

Home | Current Version | Previous Version | Text Only | Print | Product List | Glossary On
Versions: 1 2 3 4 5 6 7 8 9 10 11 12 13 14 15 16 17 18 19 20 21 22 23 24 25 26 27 28 29 30 31 32 33 34 35 36 37 38 39 40 41 42 43 44 45 46 47 48 49 50
000
ASUS43 KBIS 250259
RWRBIS

NWR BROADCAST TEXT
NATIONAL WEATHER SERVICE BISMARCK ND
1000 PM CDT THU JUL 24 2014

NOTE: "FAIR" INDICATES FEW OR NO CLOUDS BELOW 12,000 FEET WITH NO
SIGNIFICANT WEATHER AND/OR OBSTRUCTIONS TO VISIBILITY.


CITY           SKY/WX    TMP DP  RH WIND       PRES   REMARKS
WILLISTON      LGT RAIN  67  62  84 NW20G29   29.77R
MINOT          MOCLDY    70  66  87 S5        29.75R
MINOT AFB      NOT AVBL
BISMARCK       CLOUDY    74  65  73 S17       29.72R
DICKINSON      NOT AVBL
GARRISON         N/A     70  67  90 CALM      29.74R
HETTINGER ARPT CLOUDY    76  68  76 SE16      29.71R
JAMESTOWN      PTCLDY    70  63  78 S18G30    29.71R
CARRINGTON     FAIR      68  68 100 SE9       29.75R
CROSBY           N/A     64  64 100 NW6       29.75R
HARVEY         FAIR      66  66 100 E7        29.75R
HAZEN          FAIR      73  66  78 SE6       29.70R
LINTON         FAIR      72  64  78 SE16G29   29.72R
MANDAN         FAIR      73  64  73 SE14G21   29.72R
RUGBY          MOCLDY    68  66  94 E10       29.75R
TIOGA          FAIR      72  72 100 E12       29.75R
WATFORD CITY   LGT RAIN  73  70  88 N5        29.72R
$$

CITY           SKY/WX    TMP DP  RH WIND       PRES   REMARKS
GRAND FORKS    MOCLDY    70  61  73 SE9       29.78R
GRAND FORKS AF NOT AVBL
DEVILS LAKE    CLOUDY    70  61  73 E10       29.76R
FARGO          MOCLDY    71  62  73 SE17G30   29.71F
CAVALIER       MOCLDY    68  63  83 S6        29.79R
GRAFTON        CLOUDY    68  63  83 SE8       29.79R
GWINNER        MOCLDY    70  64  83 SE16      29.80F
LANGDON        CLOUDY    66  63  88 SE10      29.81R
$$

CITY           SKY/WX    TMP DP  RH WIND       PRES   REMARKS
ABERDEEN       CLOUDY    71  63  75 SE10      29.76F
MOBRIDGE         N/A     72  65  78 E10G21    29.68R
BUFFALO          N/A     72  59  63 E12       29.63F
RAPID CITY     CLEAR     80  59  48 CALM      29.67F
GLASGOW        CLEAR     68  37  32 NW7       29.80R
SIDNEY         CLOUDY   N/A N/A N/A N24G36    29.77R
WOLF POINT     PTCLDY    66  53  63 NE6       29.83R
GLENDIVE       MOCLDY    66  54  63 N23G35    29.82R
MILES CITY     CLEAR     73  48  41 N13       29.83R
BAKER          PTCLDY    68  61  78 N31G46    29.80R
$$

CITY           SKY/WX    TMP DP  RH WIND       PRES   REMARKS
BILLINGS       CLEAR     77  38  24 N13       29.88R
GREAT FALLS    CLEAR     62  32  32 W21G29    29.95R
$$



USA.gov is the U.S. government's official web portal to all federal, state and local government web resources and services.